Location: La Ronge
(55.1000°N, 105.3000°W)
Time: 11:24:45
(UTC-06:00)

Daily predictions for brighter satellites

Satellite Brightness Start Highest point End
(mag) Time Altitude Azimuth Time Altitude Azimuth Time Altitude Azimuth
Cosmos 2219 Rocket 2.3 18:07:35 10° NNW 18:13:10 61° NE 18:18:42 10° SE
Meteor 1-28 Rocket 3.9 18:15:16 10° NNE 18:18:44 32° E 18:22:09 10° SSE
Cosmos 1805 Rocket 4.2 18:14:55 10° N 18:18:57 34° ENE 18:23:00 10° SE
Abrixas rocket 4.0 18:17:04 10° WSW 18:19:50 25° S 18:22:38 10° SE
METEOR-M 4.3 18:15:12 10° SE 18:20:24 55° ENE 18:25:37 10° N
SMAP 3.2 18:16:34 10° SSE 18:21:14 81° WSW 18:25:57 10° NNW
Cosmos-2242 3.2 18:17:53 10° SSW 18:22:08 79° WNW 18:26:26 10° N
Cosmos 1470 4.3 18:18:51 10° SW 18:22:36 39° WNW 18:26:21 10° N
Cosmos 1461 3.2 18:19:36 10° WSW 18:23:45 67° NW 18:28:08 10° NE
Resurs 01 Rocket 3.5 18:22:16 10° ENE 18:23:59 12° NE 18:25:42 10° NNE
Meteor 1-16 Rocket 4.1 18:18:46 10° S 18:24:07 86° E 18:29:38 10° NNE
Aureole 2 Rocket 2.8 18:20:51 10° NNW 18:24:41 61° ENE 18:28:41 10° SE
Lacrosse 4 Rocket 3.6 18:22:14 10° WNW 18:25:08 17° NNW 18:28:01 10° NNE
CZ-4 R/B 1.5 18:21:30 10° SSE 18:25:40 88° W 18:29:47 10° NNW
Cosmos 1626 2.9 18:24:25 10° NNW 18:28:07 59° W 18:31:48 10° S
Cosmos 1666 Rocket 4.4 18:24:39 10° N 18:28:30 29° ENE 18:32:18 10° SE
CZ-4C R/B 3.4 18:26:26 10° SSE 18:30:34 23° ESE 18:35:09 10° ENE
Cosmos 2366 rocket 4.0 18:24:40 10° S 18:30:49 74° E 18:36:59 10° NNE
EO 1 Delta rocket 4.3 18:24:57 10° SSE 18:31:00 89° ENE 18:35:58 10° N
Cosmos 1633 Rocket 4.0 18:28:21 10° N 18:32:11 28° ENE 18:36:00 10° SE
Cosmos 1315 Rocket 2.9 18:28:19 10° NNW 18:32:26 88° E 18:36:33 10° SSE
GRACE-1 4.3 18:34:39 10° SSE 18:37:02 34° E 18:39:26 10° NNE
YAOGAN 1 2.6 18:34:03 10° SSE 18:38:24 90° NNE 18:42:46 10° NNW
USA 161 3.8 18:37:46 10° NNW 18:39:32 19° WNW 18:41:10 10° WSW
FREGAT/IRIS 4.1 18:38:16 10° ESE 18:40:29 19° ENE 18:42:42 10° NNE
Meteor 2-1 Rocket 4.4 18:35:29 10° S 18:41:15 62° E 18:47:08 10° NNE
SL-8 Rocket 4.3 18:35:33 10° SSW 18:41:46 77° WNW 18:48:06 10° N
GENESIS II 4.5 18:37:54 10° SSW 18:41:47 53° SE 18:45:40 10° NE
CZ-4 R/B 4.5 18:39:14 10° SSE 18:43:24 89° WSW 18:47:36 10° NNW
Iridium 4 Rocket 4.1 18:38:03 10° SSE 18:43:29 43° E 18:49:03 10° NNE
Cosmos 1484 Rocket 3.8 18:40:01 10° S 18:43:38 49° W 18:47:17 10° NNW
Cosmos 2084 3.8 18:40:07 10° WNW 18:43:50 57° SW 18:47:37 10° SE
Cosmos 1703 4.2 18:40:16 10° NNW 18:44:08 53° W 18:47:56 10° S
USA 234 3.4 18:39:19 10° E 18:45:48 78° N 18:52:23 10° W
Cosmos 44 Rocket 4.0 18:45:02 10° S 18:49:13 32° ESE 18:52:58 12° ENE
USA 116 4.4 18:45:05 10° NNE 18:50:17 70° ESE 18:55:39 10° S
Cosmos 1908 3.4 18:46:33 10° S 18:50:21 52° E 18:54:09 10° NNE
Cosmos 2237 Rocket 2.2 18:46:20 10° NNW 18:52:03 65° NE 18:57:43 10° SE
Cosmos 2221 2.7 18:50:10 10° S 18:54:22 50° E 18:58:37 10° NNE
Cosmos 1000 Rocket 4.4 18:49:27 10° N 18:55:44 76° ENE 19:01:55 10° SSE
SPOT 3 Rocket 3.5 18:51:11 10° SSE 18:56:25 85° ENE 19:01:41 10° NNW
Cosmos 1110 Rocket 4.0 18:51:21 10° NNW 18:56:42 72° ENE 19:01:59 10° SE
Lacrosse 5 rocket 1.6 18:52:29 10° W 18:56:55 67° N 19:00:02 17° E
CZ-2C R/B 3.6 18:53:02 10° NNE 18:57:36 80° ESE 19:02:04 10° SSW
SKYMED 2 3.8 18:54:36 10° NNE 18:58:50 47° E 19:03:02 10° S
SJ-6B 3.6 18:56:40 11° ESE 18:59:38 28° ENE 19:02:54 10° N
H-2A R/B 3.4 18:57:18 10° SE 19:00:54 36° ENE 19:04:33 10° N
Cosmos 1934 Rocket 4.4 18:56:46 10° SSE 19:02:36 40° E 19:08:27 10° NNE
SL-16 R/B 2.6 19:00:03 10° NNW 19:05:31 45° NE 19:09:56 15° ESE
GP-B 3.6 19:01:23 10° N 19:05:48 64° W 19:10:11 10° SSW
Cosmos 1821 Rocket 4.1 19:00:16 10° SSE 19:06:14 52° E 19:12:20 10° NNE
Cosmos 2227 Rocket 3.4 19:02:44 10° SE 19:06:38 19° E 19:08:05 18° E
Cosmos 158 Rocket 4.0 19:05:48 10° SSW 19:10:52 64° ESE 19:16:08 10° NNE
Cosmos 1892 3.7 19:07:42 10° N 19:10:59 26° ENE 19:12:02 23° E
Cosmos 1300 3.4 19:08:10 10° SSE 19:11:35 32° E 19:15:01 10° NNE
Cosmos 2098 Rocket 3.9 19:06:31 10° S 19:11:46 59° E 19:18:17 10° NNE
ATLAS 5 CENTAUR R/B 3.0 19:08:28 10° WNW 19:13:25 37° N 19:17:12 18° ENE
Cosmos 1842 Rocket 4.3 19:10:38 10° SSW 19:15:01 58° WNW 19:19:25 10° N
Cosmos 1980 3.7 19:11:08 10° NW 19:16:51 88° WSW 19:22:30 10° SSE
APEX 2.4 19:17:07 10° SSW 19:19:53 52° ESE 19:20:37 38° ENE
ALOS 2.3 19:17:17 10° SSE 19:21:58 83° WSW 19:26:42 10° NNW
Cosmos 1048 Rocket 3.9 19:18:25 10° SSW 19:23:29 67° ESE 19:28:36 10° NNE
H-2A R/B 4.2 19:23:32 10° NE 19:24:06 11° NE 19:25:15 10° NNE
Cosmos 2082 Rocket 4.3 19:21:43 10° WNW 19:25:54 20° NNW 19:30:05 10° NNE
Cosmos 1470 Rocket 3.8 19:22:52 10° N 19:27:13 46° ENE 19:30:26 17° SE
FENGYUN 3A 3.8 19:21:58 10° SSE 19:27:24 80° WSW 19:32:52 10° NNW
COSMOS 2428 4.4 19:23:46 10° NW 19:28:51 35° WSW 19:33:56 10° S
Meteor 2-10 4.1 19:24:01 10° SSE 19:28:52 48° E 19:33:54 10° NNE
Cosmos 2123 Rocket 3.9 19:23:24 10° N 19:29:41 79° ENE 19:35:59 10° SSE
Envisat 3.6 19:28:02 24° ESE 19:30:12 35° ENE 19:34:48 10° N
CZ-2D R/B 3.8 19:29:18 31° E 19:30:12 36° ENE 19:33:49 10° N
Meteor 2-3 Rocket 3.9 19:24:53 10° N 19:30:32 51° ENE 19:35:42 12° SE
Cosmos 2333 Rocket 3.0 19:26:13 10° NW 19:31:50 55° WSW 19:37:25 10° S
BREEZE-M DEB (TANK) 4.0 19:32:33 10° SSW 19:33:16 14° S 19:33:16 14° S
Cosmos 2251 Rocket 4.3 19:30:07 10° SSE 19:34:35 28° E 19:34:47 28° E
Cosmos 1726 1.9 19:32:46 10° S 19:36:27 81° E 19:40:09 10° NNE
Sich 1 3.3 19:34:01 10° NNW 19:38:24 72° W 19:42:46 10° S
Cosmos 2219 3.2 19:32:47 10° SSW 19:38:29 67° ESE 19:44:11 10° NE
Cosmos 1605 Rocket 4.1 19:35:00 10° SSE 19:40:48 49° E 19:46:39 10° NNE
Cosmos 2297 Rocket 3.0 19:38:37 10° SSE 19:42:52 28° ESE 19:42:52 28° ESE
EO 1 Del DPAF 3.9 19:39:38 10° N 19:43:27 58° WNW 19:47:13 10° SSW
Cosmos 1825 4.3 19:43:17 10° NNE 19:44:17 15° NNE 19:44:17 15° NNE
HJ-1C 3.3 19:45:48 39° SSE 19:46:57 74° ENE 19:50:24 10° N
COSMO-SKYMED 1 2.9 19:42:37 10° N 19:46:58 68° WNW 19:51:16 10° SSW
Thor Agena Rocket 3.5 19:43:24 10° NNE 19:48:26 54° ESE 19:53:23 10° S
Cosmos 44 2.8 19:44:14 10° SW 19:48:34 80° SE 19:50:27 33° NE
Cosmos 2082 4.4 19:49:46 10° S 19:54:11 33° ESE 19:54:11 33° ESE
Abrixas rocket 4.5 19:53:39 10° WSW 19:55:49 16° SSW 19:56:28 16° S
Cosmos 2219 Rocket 3.9 19:51:54 10° NW 19:56:51 33° WSW 20:01:48 10° S
Resurs 01 Rocket 1.6 19:58:52 49° ESE 19:59:36 56° ENE 20:03:56 10° N
Resurs 1-3 3.7 19:59:40 51° E 20:00:11 54° ENE 20:04:29 10° N
Lacrosse 4 Rocket 3.5 20:02:45 10° NNW 20:05:27 16° N 20:06:11 15° NNE
Cosmos 1447 Rocket 4.4 20:00:27 10° N 20:06:50 83° ENE 20:13:08 10° SSE
CSL-04 DEB 4.5 20:05:30 27° S 20:07:39 74° WSW 20:11:39 10° NNW
Cosmos 1633 Rocket 4.1 20:05:57 10° NNW 20:10:11 45° W 20:14:25 10° SSW
FREGAT/IRIS 4.3 20:10:10 19° SSW 20:11:47 34° W 20:14:34 10° NNW
Cosmos 1933 Rocket 3.5 20:10:06 10° NNW 20:14:29 81° W 20:16:14 36° S
Cosmos 2228 Rocket 3.1 20:10:37 10° S 20:15:26 64° ENE 20:19:43 10° NNE
Cosmos 1939 Rocket 3.9 20:17:28 35° NNE 20:17:28 35° NNE 20:20:13 10° N
Cosmos 1328 Rocket 3.4 20:12:05 10° S 20:16:28 79° E 20:20:51 10° NNE
CZ-4C R/B 2.2 20:12:39 10° SW 20:18:10 84° SE 20:21:00 34° NE
Meteor 2-2 Rocket 4.1 20:18:43 10° SSW 20:24:23 88° W 20:30:04 10° NNE
USA 234 3.2 20:26:41 47° ESE 20:28:48 87° NNE 20:35:24 10° WNW
Cosmos 44 Rocket 3.6 20:25:51 10° WSW 20:30:31 62° NW 20:31:42 46° NNE
Cosmos 494 Rocket 3.8 20:28:12 10° SSW 20:33:20 88° ESE 20:35:02 44° NNE
Spot 2 Rocket 3.4 20:32:42 59° SSE 20:33:41 88° WSW 20:38:49 10° NNW
SJ-6B 4.2 20:32:20 21° SSW 20:34:15 35° W 20:37:45 10° NNW
Meteor 1-27 4.1 20:28:55 10° S 20:34:39 74° E 20:40:30 10° NNE
Cosmos 2237 Rocket 3.9 20:30:50 10° NW 20:35:47 31° WSW 20:40:43 10° SSW
Lacrosse 5 rocket 1.7 20:32:00 10° WNW 20:35:43 64° W 20:35:43 64° W
Terra 4.3 20:40:28 10° NNE 20:40:28 10° NNE 20:40:32 10° NNE
Cosmos 1943 3.6 20:35:39 10° NNW 20:40:54 46° NE 20:40:54 46° NE
Cosmos 1992 Rocket 3.8 20:36:47 10° NNW 20:42:04 88° WSW 20:42:18 82° SSE
Cosmos 1459 Rocket 4.2 20:44:17 54° ENE 20:44:17 54° ENE 20:49:38 10° NNE
Cosmos 1892 4.1 20:43:17 10° NNW 20:46:51 37° W 20:47:06 36° WSW
SL-16 R/B 2.9 20:44:17 10° NW 20:49:46 50° WSW 20:51:51 34° SSW
Cosmos 2227 Rocket 2.0 20:44:14 10° SSW 20:49:55 85° ESE 20:50:00 84° E
Cosmos 1603 3.6 20:44:56 10° NNW 20:50:37 78° NE 20:50:37 78° NE
Geosat 4.3 20:58:07 60° N 20:58:07 60° N 21:02:21 10° NNW
ATLAS 5 CENTAUR R/B 2.3 20:53:24 10° NW 20:58:45 66° NNE 20:58:45 66° NNE
H-2A R/B 3.6 21:04:10 27° NNE 21:04:10 27° NNE 21:07:04 10° N
Envisat 3.8 21:08:16 43° SW 21:09:08 48° W 21:14:04 10° NNW
Cosmos 2082 Rocket 4.3 21:08:37 10° NNW 21:12:16 17° N 21:13:25 16° NNE
ERS-1 Rocket 4.3 21:16:32 32° N 21:16:32 32° N 21:19:16 10° N
Cosmos 2251 Rocket 4.2 21:11:14 10° SW 21:15:24 51° WSW 21:15:24 51° WSW
Cosmos 2100 Rocket 4.1 21:20:47 69° NNW 21:20:47 69° NNW 21:26:15 10° N
Tsikada Rocket 4.2 21:16:40 10° N 21:21:56 63° N 21:21:56 63° N
Cosmos 2297 Rocket 3.2 21:21:23 10° SW 21:24:46 37° SW 21:24:46 37° SW
ARGOS 4.3 21:31:48 36° N 21:31:48 36° N 21:34:58 10° NNW
Resurs 01 Rocket 3.7 21:36:28 23° W 21:36:28 23° W 21:39:59 10° NW
Lacrosse 4 Rocket 4.2 21:41:33 10° NNW 21:42:30 15° NNW 21:42:30 15° NNW
CZ-4C R/B 3.4 22:01:39 10° W 22:06:12 42° NW 22:06:12 42° NW
USA 234 4.1 22:14:02 42° W 22:14:02 42° W 22:18:35 10° WNW
Cosmos 2227 Rocket 4.3 22:29:40 10° W 22:31:54 21° W 22:31:54 21° W
H-2A R/B 4.3 22:44:49 22° NNW 22:44:49 22° NNW 22:46:44 10° NNW
ATLAS 5 CENTAUR R/B 4.3 22:38:11 10° WNW 22:40:17 23° WNW 22:40:17 23° WNW
